Regional Weather Roundup
Issued by NWS Cleveland, OH

Home | Current Version | Previous Version | Graphics & Text | Print | Product List | Glossary Off
Versions: 1 2 3 4 5 6 7 8 9 10 11 12 13 14 15 16 17 18 19 20 21 22 23 24 25 26 27 28 29 30 31 32 33 34 35 36 37 38 39 40 41 42 43 44 45 46 47 48 49 50

000
ASUS41 KCLE 221612
RWRCLE
OHIO REGIONAL WEATHER ROUNDUP
NATIONAL WEATHER SERVICE WILMINGTON, OH
1200 PM EDT SUN OCT 22 2017

NOTE: "FAIR" INDICATES FEW OR NO CLOUDS BELOW 12,000 FEET WITH NO
SIGNIFICANT WEATHER AND/OR OBSTRUCTIONS TO VISIBILITY.

OHZ001>008-015>018-024>027-034-035-043-044-221700-
   NORTHWEST OHIO

CITY           SKY/WX    TMP DP  RH WIND       PRES   REMARKS
DEFIANCE       FAIR      72  54  53 S17G24    30.13F
FINDLAY        FAIR      74  53  48 S21G28    30.17F
TOLEDO EXPRESS FAIR      71  56  58 S12G18    30.15F
TOLEDO EXEC    FAIR      72  54  53 S14       30.17F
LIMA           FAIR      72  53  51 S18G29    30.17S
$$

OHZ009>014-019>023-028>033-038-089-221700-
   NORTHEAST OHIO

CITY           SKY/WX    TMP DP  RH WIND       PRES   REMARKS
CLE-HOPKINS    FAIR      72  52  49 S13       30.24F
CLE-LAKEFRONT  FAIR      72  52  49 S8        30.22F
CUY CO. ARPT   MOSUNNY   73  54  49 S14       30.25R
LORAIN-ELYRIA  FAIR      69  49  48 S12       30.22F
ASHTABULA      FAIR      70  53  54 S12       30.26F
AKRON-CANTON   PTSUNNY   70  51  51 S8        30.26F
WOOSTER        FAIR      70  50  49 SW12      30.26F
MANSFIELD      FAIR      71  52  50 S15G23    30.24F
YOUNGSTOWN     FAIR      67  52  58 S9        30.28R
$$

OHZ042-051>053-060>062-070>072-077>081-221700-
  SOUTHWEST OHIO

CITY           SKY/WX    TMP DP  RH WIND       PRES   REMARKS
CINC-COVINGTON PTSUNNY   70  55  59 S13       30.20S
CINC-LUNKEN    FAIR      70  54  56 S12       30.21F
HAMILTON       FAIR      73  53  49 S10G17    30.20F
DAYTON         PTSUNNY   71  53  52 S22       30.20F
WRIGHT-PAT AFB FAIR      73  51  45 S16       30.20S
DAYTON GENERAL FAIR      71  52  50 S14G24    30.20S
WILMINGTON     FAIR      72  54  53 S12       30.22S
$$

OHZ036-037-039>041-045>050-054>059-063>069-073>076-082>088-221700-
  CENTRAL AND SOUTHEAST OHIO

CITY           SKY/WX    TMP DP  RH WIND       PRES   REMARKS
COLUMBUS       PTSUNNY   73  53  49 S10       30.23F
OSU AIRPORT    FAIR      71  54  54 VRB7      30.23F
BOLTON FIELD   SUNNY     72  54  53 S10G17    30.23F
RICKENBACK AFB FAIR      71  52  50 S12G18    30.23S
NEWARK         FAIR      72  50  45 S7        30.25S
MARION         FAIR      73  52  47 S16       30.22F
LANCASTER      FAIR      70  56  61 SE8       30.25F
ZANESVILLE     FAIR      69  53  56 VRB3      30.27F
NEW PHILLY     FAIR      72  52  49 VRB3      30.27F
$$




USA.gov is the U.S. government's official web portal to all federal, state and local government web resources and services.